Printer-friendly version

IAU Minor Planet Center

Minor Planet Center

(15) Eunomia

Orbital Elements

The following orbital elements are taken from MPC 24219:
   (15) Eunomia
Epoch 2001 Apr. 1.0 TT = JDT 2452000.5   (M-c)          Bowell
M 211.46411              (2000.0)            P               Q
n   0.22914840     Peri.   97.06506     +0.84202653     -0.50609521
a   2.6447918      Node   293.49608     +0.37853150     +0.80093461
e   0.1858186      Incl.   11.74670     +0.38432438     +0.31995528
P   4.30           H    5.28          G   0.23
From 775 observations at 50 oppositions, 1869-1993, mean residual 0".60.
An explanation of the orbital elements is available.

These orbital elements are also available in forms suitable for loading into a number of popular planetarium-type software programs.


Ephemeris

The following ephemeris is at intervals of five days. A daily ephemeris covering the same time interval is also available.

Date    TT    R. A. (2000) Decl.     Delta      r     Elong.  Phase     V
 
2001 03 02    16 12.58   -32 54.5    2.871    3.104    94.2    18.6    10.9
2001 03 07    16 15.62   -33 14.8    2.797    3.101    98.4    18.5    10.8
2001 03 12    16 18.15   -33 34.1    2.725    3.098   102.7    18.2    10.8
2001 03 17    16 20.12   -33 52.3    2.653    3.095   107.1    17.9    10.7
2001 03 22    16 21.50   -34 09.1    2.583    3.091   111.6    17.4    10.6
2001 03 27    16 22.24   -34 24.6    2.515    3.088   116.2    16.9    10.5
2001 04 01    16 22.31   -34 38.3    2.450    3.084   120.9    16.2    10.5
2001 04 06    16 21.71   -34 50.1    2.388    3.080   125.7    15.3    10.4
2001 04 11    16 20.43   -34 59.7    2.329    3.076   130.5    14.3    10.3
2001 04 16    16 18.46   -35 06.6    2.274    3.072   135.5    13.2    10.2
2001 04 21    16 15.81   -35 10.6    2.225    3.068   140.5    12.0    10.1
2001 04 26    16 12.54   -35 11.2    2.180    3.063   145.6    10.7    10.0
2001 05 01    16 08.69   -35 08.0    2.141    3.059   150.6     9.3     9.9
2001 05 06    16 04.36   -35 00.7    2.108    3.054   155.5     7.9     9.8
2001 05 11    15 59.65   -34 49.3    2.081    3.049   159.9     6.5     9.7
2001 05 16    15 54.66   -34 33.7    2.061    3.045   163.7     5.4     9.7
2001 05 21    15 49.54   -34 13.9    2.048    3.039   165.9     4.6     9.6
2001 05 26    15 44.42   -33 50.3    2.042    3.034   165.9     4.7     9.6
2001 05 31    15 39.44   -33 23.2    2.043    3.029   163.7     5.4     9.6
2001 06 05    15 34.73   -32 53.5    2.050    3.024   160.0     6.6     9.7
2001 06 10    15 30.41   -32 21.7    2.065    3.018   155.5     8.0     9.8
2001 06 15    15 26.56   -31 48.7    2.085    3.012   150.7     9.5     9.8
2001 06 20    15 23.26   -31 15.2    2.112    3.007   145.7    11.0     9.9
2001 06 25    15 20.57   -30 41.9    2.145    3.001   140.7    12.4    10.0
2001 06 30    15 18.53   -30 09.6    2.182    2.995   135.7    13.7    10.1
2001 07 05    15 17.16   -29 38.8    2.224    2.989   130.7    14.9    10.1
2001 07 10    15 16.45   -29 09.9    2.270    2.982   125.9    16.0    10.2
2001 07 15    15 16.39   -28 43.3    2.320    2.976   121.2    17.0    10.3
2001 07 20    15 16.97   -28 19.1    2.373    2.969   116.6    17.8    10.4
2001 07 25    15 18.17   -27 57.6    2.428    2.963   112.1    18.5    10.4
2001 07 30    15 19.96   -27 38.8    2.485    2.956   107.7    19.1    10.5
2001 08 04    15 22.32   -27 22.5    2.544    2.949   103.4    19.6    10.5
2001 08 09    15 25.19   -27 08.8    2.604    2.942    99.2    19.9    10.6
2001 08 14    15 28.57   -26 57.4    2.665    2.935    95.2    20.1    10.7
2001 08 19    15 32.41   -26 48.2    2.726    2.928    91.2    20.2    10.7

Back to Bright Minor Planets

Astronomical Headlines Index


Valid HTML 4.01!